Lid_Strength_Index
12 12 12 12 11 12 12 12 12 12 12 12 13 13 13 13 13 13 13 13 12 12 11 11 12 11 10 9 9 9 8 7 9 9 11 11 12 12 11 11 12 12 11
12 12 12 11 11 11 12 12 11 12 12 12 13 13 13 13 13 14 14 13 13 12 11 11 12 11 11 10 10 10 9 8 7 8 8 13 11 11 11 12 12 12 12
12 12 11 11 11 11 11 11 11 12 12 12 12 13 13 13 13 13 13 13 12 12 12 12 12 11 11 11 11 10 9 9 8 7 7 10 11 11 13 12 13 13 13
12 11 11 10 10 10 10 10 10 10 11 11 11 11 12 12 12 12 12 11 11 11 10 10 11 11 11 11 11 10 10 10 10 9 7 11 10 11 12 14 15 14 15
12 11 10 9 9 9 9 9 10 10 10 10 11 11 11 11 11 10 9 9 10 9 9 8 8 9 9 10 10 10 10 11 11 10 9 11 11 12 12 13 14 15 16
11 10 9 9 9 9 9 10 10 10 10 10 11 11 11 10 9 8 8 8 8 8 8 7 7 7 7 7 8 8 8 10 11 11 10 9 10 11 11 12 13 16 17
10 9 9 9 10 10 10 10 10 10 10 10 10 11 11 10 8 7 7 8 8 8 8 8 8 7 7 7 7 7 8 8 8 9 10 9 9 10 11 12 13 14 15
9 9 9 10 10 10 10 10 10 10 11 11 11 11 11 10 8 8 8 8 8 8 8 8 8 8 7 7 7 8 8 8 8 7 7 8 7 8 10 11 12 14 18
12 11 10 10 11 11 11 11 11 11 11 11 11 11 11 11 9 8 8 8 8 8 8 8 8 8 7 7 8 8 9 8 7 6 6 6 6 7 9 11 13 16 20
12 11 11 11 11 12 12 13 12 12 12 11 11 11 12 12 10 8 8 8 9 9 8 8 8 8 8 7 8 8 9 8 8 7 7 6 6 7 8 10 12 13 16
13 13 13 12 13 13 13 13 13 13 13 13 13 13 13 12 10 9 8 9 9 9 10 10 9 8 8 7 7 8 7 7 7 7 7 7 7 8 9 9 10 11 15
14 14 15 14 14 13 14 14 14 14 15 15 15 14 12 11 11 10 9 9 9 10 10 10 10 8 7 7 7 6 5 5 7 7 8 9 9 10 11 13 14 15 15
16 17 16 15 14 14 14 15 15 15 16 16 15 15 14 12 11 10 10 9 9 10 10 10 8 8 7 7 6 5 7 7 8 9 9 11 12 15 17 18 19 20 20
18 17 16 15 15 15 15 15 16 17 16 16 16 15 14 13 13 12 11 11 10 11 10 10 9 8 7 6 6 6 7 7 8 9 11 15 15 15 17 17 18 18 21
17 17 16 16 17 17 16 16 16 15 15 15 14 14 14 15 13 11 11 12 11 10 10 11 11 9 8 6 6 7 7 8 9 13 14 15 15 16 17 16 18 18 21
18 17 18 18 18 18 18 18 15 14 13 12 12 12 13 12 11 11 11 10 10 11 14 15 13 12 11 10 8 8 8 9 11 12 14 15 16 16 18 18 17 18 21
21 20 20 20 20 20 20 20 22 19 15 15 14 14 13 13 13 12 11 11 13 14 18 18 17 15 14 14 10 8 9 9 11 12 14 15 16 17 18 18 18 19 21
27 24 22 21 21 21 22 22 22 23 23 22 18 17 15 15 14 13 13 15 21 20 20 20 19 17 17 16 16 9 9 10 11 13 14 14 15 17 18 18 19 20 20
24 23 23 23 23 23 23 24 24 24 24 24 23 20 20 18 16 15 17 23 23 23 22 21 20 19 19 18 16 14 9 10 11 12 14 14 15 16 17 17 18 19 20
27 26 24 25 25 26 26 26 25 25 25 25 25 24 23 21 22 23 24 24 24 23 22 22 21 21 20 19 18 17 9 10 11 11 13 14 15 15 16 16 18 19 18
29 28 27 29 30 29 27 27 27 27 28 27 26 25 18 21 25 25 25 24 24 23 23 22 22 22 21 20 19 18 14 9 10 11 12 14 14 15 14 15 16 17 19
31 32 33 34 30 30 30 29 29 30 30 29 28 27 20 26 26 26 25 24 23 23 22 22 22 22 22 21 20 18 18 10 10 11 12 13 13 13 14 15 16 17 20
34 35 34 35 35 32 32 32 32 32 32 31 30 28 27 26 26 26 25 24 23 23 22 21 21 21 20 19 18 18 17 15 9 10 11 12 13 13 14 15 16 17 19
36 37 37 36 37 35 34 33 33 33 33 32 31 29 28 27 26 25 24 23 22 22 21 20 19 20 20 19 18 17 16 16 8 9 10 12 13 13 15 16 16 17 18
38 38 38 37 37 36 36 33 32 33 33 33 31 29 28 26 25 24 23 22 21 20 19 19 18 17 17 17 17 17 16 15 10 9 10 11 13 14 15 16 16 17 18
38 38 38 38 36 35 35 34 32 31 32 31 31 30 28 26 25 23 23 22 20 20 19 17 15 15 15 15 15 15 14 12 9 10 10 12 13 14 15 16 17 17 18